FW7568 Weather Reports


Display with metric or nautical units.
time (UTC)temp
F
wind
direction
speed
MPH
gust
MPH
rain 1hr
in
rain 24hr
in
rain mn
in
humidity
%
barometer
mb
20260508225507 50 270 0.0 0.0 0.00 0.00 0.00 52 1012.5
20260508224957 50 270 0.0 0.0 0.00 0.00 0.00 51 1012.6
20260508224447 50 270 0.0 0.0 0.00 0.00 0.00 51 1012.3
20260508223936 50 270 0.0 0.0 0.00 0.00 0.00 51 1012.8
20260508223426 50 270 0.0 0.0 0.00 0.00 0.00 51 1012.5
20260508222916 50 270 0.0 2.0 0.00 0.00 0.00 51 1012.6
20260508222405 50 270 0.0 4.0 0.00 0.00 0.00 50 1012.5
20260508221856 51 270 1.0 4.0 0.00 0.00 0.00 50 1012.8
20260508221346 51 270 2.0 4.0 0.00 0.00 0.00 48 1012.7
20260508220836 52 248 2.0 4.0 0.00 0.00 0.00 47 1012.4
20260508220325 52 248 2.0 4.0 0.00 0.00 0.00 45 1012.3
20260508215815 52 248 2.0 4.0 0.00 0.00 0.00 46 1012.3
20260508215307 53 270 2.0 4.0 0.00 0.00 0.00 45 1012.4
20260508214755 53 270 2.0 4.0 0.00 0.00 0.00 45 1012.4
20260508214245 53 270 3.0 4.0 0.00 0.00 0.00 44 1012.2
20260508213735 54 248 3.0 4.0 0.00 0.00 0.00 44 1012.4
20260508212715 54 270 3.0 6.0 0.00 0.00 0.00 42 1012.4
20260508212204 55 270 4.0 6.0 0.00 0.00 0.00 40 1012.1
20260508211654 55 248 3.0 7.0 0.00 0.00 0.00 39 1012.1
20260508211145 56 248 4.0 8.0 0.00 0.00 0.00 37 1012.1
20260508210634 57 248 4.0 9.0 0.00 0.00 0.00 36 1011.9
20260508210125 58 248 7.0 11.0 0.00 0.00 0.00 35 1012.0
20260508205614 58 248 8.0 13.0 0.00 0.00 0.00 34 1012.3
20260508205104 59 248 8.0 13.0 0.00 0.00 0.00 34 1012.1
20260508204554 59 248 8.0 13.0 0.00 0.00 0.00 33 1011.9
20260508204043 59 248 9.0 16.0 0.00 0.00 0.00 32 1011.9
20260508203533 60 248 10.0 16.0 0.00 0.00 0.00 31 1012.0
20260508203023 60 248 10.0 20.0 0.00 0.00 0.00 30 1012.0
20260508202003 60 248 13.0 20.0 0.00 0.00 0.00 30 1011.9
20260508200433 61 270 12.0 22.0 0.00 0.00 0.00 29 1011.6
20260508195924 60 225 17.0 22.0 0.00 0.00 0.00 28 1011.5
20260508195413 61 270 16.0 21.0 0.00 0.00 0.00 28 1011.7
20260508194902 61 248 14.0 20.0 0.00 0.00 0.00 28 1011.7
20260508194354 61 225 14.0 22.0 0.00 0.00 0.00 28 1011.7
20260508193842 61 248 12.0 22.0 0.00 0.00 0.00 28 1011.8
20260508193333 61 248 16.0 22.0 0.00 0.00 0.00 26 1011.9
20260508192822 61 248 15.0 20.0 0.00 0.00 0.00 28 1012.0
20260508191801 61 248 11.0 24.0 0.00 0.00 0.00 30 1011.8
20260508191252 61 270 13.0 24.0 0.00 0.00 0.00 29 1012.1
20260508190742 61 248 14.0 22.0 0.00 0.00 0.00 29 1012.3
20260508190233 61 248 15.0 22.0 0.00 0.00 0.00 29 1012.3
20260508185722 61 270 14.0 25.0 0.00 0.00 0.00 29 1012.0
20260508185211 61 248 17.0 25.0 0.00 0.00 0.00 28 1012.3
20260508184701 61 248 17.0 25.0 0.00 0.00 0.00 29 1012.3
20260508184150 61 248 17.0 21.0 0.00 0.00 0.00 29 1012.3
20260508183642 60 248 17.0 21.0 0.00 0.00 0.00 31 1012.3
20260508183130 61 248 15.0 22.0 0.00 0.00 0.00 31 1012.3
20260508182621 60 225 14.0 24.0 0.00 0.00 0.00 32 1012.3
20260508182111 60 248 19.0 25.0 0.00 0.00 0.00 30 1012.2
20260508181601 60 248 15.0 25.0 0.00 0.00 0.00 31 1012.3
20260508181050 60 248 18.0 23.0 0.00 0.00 0.00 31 1012.4
20260508180030 60 248 15.0 24.0 0.00 0.00 0.00 31 1012.6
20260508175521 61 248 13.0 23.0 0.00 0.00 0.00 33 1012.5
20260508175010 60 248 12.0 24.0 0.00 0.00 0.00 33 1012.6
20260508174500 59 270 17.0 24.0 0.00 0.00 0.00 31 1012.6
20260508173950 60 248 15.0 23.0 0.00 0.00 0.00 32 1012.9
20260508172929 59 270 15.0 24.0 0.00 0.00 0.00 32 1013.1
20260508172420 59 248 17.0 27.0 0.00 0.00 0.00 33 1013.3
20260508171909 59 248 15.0 27.0 0.00 0.00 0.00 34 1013.1
20260508171359 59 293 14.0 23.0 0.00 0.00 0.00 34 1013.3
20260508170849 59 248 15.0 23.0 0.00 0.00 0.00 34 1013.5
20260508170339 59 270 15.0 25.0 0.00 0.00 0.00 34 1013.3
20260508165828 58 225 15.0 25.0 0.00 0.00 0.00 33 1013.5
20260508164808 59 270 15.0 24.0 0.00 0.00 0.00 36 1013.7
20260508163748 58 248 15.0 24.0 0.00 0.00 0.00 36 1013.9
20260508162728 57 248 11.0 27.0 0.00 0.00 0.00 38 1013.8
20260508162218 58 270 15.0 27.0 0.00 0.00 0.00 37 1014.1
20260508161157 58 270 14.0 24.0 0.00 0.00 0.00 38 1013.9
20260508160647 57 270 17.0 24.0 0.00 0.00 0.00 37 1014.0
20260508160137 58 248 19.0 24.0 0.00 0.00 0.00 37 1014.0
20260508155118 57 248 14.0 22.0 0.00 0.00 0.00 40 1014.3
20260508154057 57 270 13.0 27.0 0.00 0.00 0.00 40 1014.6
20260508153546 56 248 17.0 24.0 0.00 0.00 0.00 39 1014.6
20260508153043 57 225 15.0 20.0 0.00 0.00 0.00 41 1014.7
20260508152016 55 225 16.0 25.0 0.00 0.00 0.00 39 1014.7
20260508150957 56 248 11.0 22.0 0.00 0.00 0.00 41 1014.9
20260508150446 55 270 12.0 21.0 0.00 0.00 0.00 43 1015.0
20260508145936 55 270 15.0 21.0 0.00 0.00 0.00 43 1015.1
20260508144916 54 248 14.0 23.0 0.00 0.00 0.00 42 1015.3
20260508144406 55 248 17.0 23.0 0.00 0.00 0.00 42 1015.3
20260508143856 54 248 12.0 23.0 0.00 0.00 0.00 43 1015.2
20260508143346 55 270 12.0 22.0 0.00 0.00 0.00 44 1015.3
20260508142836 54 248 17.0 22.0 0.00 0.00 0.00 44 1015.4
20260508142325 54 270 13.0 24.0 0.00 0.00 0.00 44 1015.4
20260508141305 53 270 16.0 22.0 0.00 0.00 0.00 46 1015.4
20260508140755 53 225 16.0 22.0 0.00 0.00 0.00 46 1015.4
20260508140245 54 248 12.0 23.0 0.00 0.00 0.00 46 1015.4
20260508135225 53 270 13.0 22.0 0.00 0.00 0.00 48 1015.4
20260508134714 53 248 15.0 22.0 0.00 0.00 0.00 47 1015.5
20260508134204 53 270 16.0 22.0 0.00 0.00 0.00 48 1015.6
20260508133144 52 248 15.0 27.0 0.00 0.00 0.00 49 1015.6
20260508132124 52 248 14.0 22.0 0.00 0.00 0.00 48 1015.3
20260508131104 51 248 16.0 23.0 0.00 0.00 0.00 50 1015.3
20260508130554 51 248 19.0 23.0 0.00 0.00 0.00 51 1015.5
20260508130049 51 270 16.0 22.0 0.00 0.00 0.00 52 1015.4
20260508125534 51 248 15.0 21.0 0.00 0.00 0.00 53 1015.3
20260508124514 51 248 12.0 20.0 0.00 0.00 0.00 55 1015.3
20260508124002 51 270 9.0 17.0 0.00 0.00 0.00 57 1015.2
20260508123453 50 248 10.0 20.0 0.00 0.00 0.00 57 1015.1
20260508122943 50 248 12.0 20.0 0.00 0.00 0.00 56 1015.1
20260508122433 50 248 11.0 20.0 0.00 0.00 0.00 56 1015.4
20260508121923 49 248 12.0 20.0 0.00 0.00 0.00 56 1015.5
20260508121412 49 248 13.0 21.0 0.00 0.00 0.00 57 1015.1
20260508120902 49 248 13.0 21.0 0.00 0.00 0.00 58 1015.2
20260508120352 48 248 10.0 18.0 0.00 0.00 0.00 60 1015.1
20260508115843 47 270 10.0 18.0 0.00 0.00 0.00 62 1015.1
20260508115332 47 270 11.0 17.0 0.00 0.00 0.00 62 1015.0
20260508114822 47 270 12.0 17.0 0.00 0.00 0.00 62 1014.9
20260508114312 47 270 8.0 14.0 0.00 0.00 0.00 65 1014.9
20260508113802 46 270 10.0 14.0 0.00 0.00 0.00 67 1014.9
20260508113252 46 293 9.0 14.0 0.00 0.00 0.00 68 1014.9
20260508112741 45 293 9.0 14.0 0.00 0.00 0.00 68 1014.9
20260508111722 44 293 7.0 11.0 0.00 0.00 0.00 72 1014.5
20260508110701 44 315 6.0 9.0 0.00 0.00 0.00 72 1014.5
20260508110151 44 315 5.0 9.0 0.00 0.00 0.00 71 1014.6
20260508105641 44 293 6.0 9.0 0.00 0.00 0.00 70 1014.3
20260508105130 43 293 6.0 9.0 0.00 0.00 0.00 73 1014.2
20260508104622 43 293 5.0 9.0 0.00 0.00 0.00 73 1014.1
20260508104111 43 293 5.0 8.0 0.00 0.00 0.00 73 1014.0
20260508103601 44 270 5.0 11.0 0.00 0.00 0.00 71 1013.9
20260508103050 44 270 7.0 11.0 0.00 0.00 0.00 68 1013.7
20260508102541 45 248 7.0 11.0 0.00 0.00 0.00 67 1013.5
20260508102030 45 248 8.0 16.0 0.00 0.00 0.00 65 1013.4
20260508101520 46 248 9.0 16.0 0.00 0.00 0.00 63 1013.2
20260508101010 46 248 9.0 14.0 0.00 0.00 0.00 64 1013.2
20260508100500 46 248 9.0 13.0 0.00 0.00 0.00 64 1013.1
20260508094929 45 248 6.0 13.0 0.00 0.00 0.00 68 1013.0
20260508094420 44 248 8.0 11.0 0.00 0.00 0.00 71 1013.2
20260508093910 44 248 8.0 11.0 0.00 0.00 0.00 71 1012.8
20260508092849 44 270 8.0 11.0 0.00 0.00 0.00 72 1012.7
20260508092339 44 270 8.0 11.0 0.00 0.00 0.00 72 1012.7
20260508091829 44 248 6.0 11.0 0.00 0.00 0.00 73 1012.7
20260508091318 44 248 7.0 11.0 0.00 0.00 0.00 73 1012.3
20260508090809 44 248 7.0 14.0 0.00 0.00 0.00 71 1012.5
20260508090258 45 248 8.0 14.0 0.00 0.00 0.00 70 1012.3
20260508085748 45 248 8.0 13.0 0.00 0.00 0.00 71 1012.3
20260508085238 45 248 9.0 13.0 0.00 0.00 0.00 71 1012.0
20260508084728 44 248 6.0 13.0 0.00 0.00 0.00 72 1011.9
20260508084218 45 248 9.0 13.0 0.00 0.00 0.00 71 1011.8
20260508083708 45 248 8.0 14.0 0.00 0.00 0.00 70 1011.7
20260508083158 45 225 8.0 14.0 0.00 0.00 0.00 71 1011.6
20260508082648 45 225 8.0 15.0 0.00 0.00 0.00 71 1011.5
20260508082138 45 225 11.0 15.0 0.00 0.00 0.00 70 1011.6
20260508081627 45 248 9.0 16.0 0.00 0.00 0.00 70 1011.3
20260508081118 46 225 11.0 16.0 0.00 0.00 0.00 69 1010.9
20260508080607 46 248 9.0 17.0 0.00 0.00 0.00 70 1011.0
20260508075547 45 225 9.0 16.0 0.00 0.00 0.00 70 1010.7
20260508075036 45 225 11.0 16.0 0.00 0.00 0.00 70 1010.8
20260508074527 46 225 11.0 15.0 0.00 0.00 0.00 70 1010.7
20260508073507 46 225 11.0 15.0 0.00 0.00 0.00 69 1010.7
20260508072956 46 248 11.0 15.0 0.00 0.00 0.00 68 1010.6
20260508072445 46 225 8.0 14.0 0.00 0.00 0.00 70 1010.4
20260508071936 46 225 9.0 14.0 0.00 0.00 0.00 70 1010.8
20260508071425 46 248 8.0 13.0 0.00 0.00 0.00 69 1011.0
20260508070916 46 248 8.0 13.0 0.00 0.00 0.00 69 1010.8
20260508070404 46 248 8.0 0.0 0.00 0.00 0.00 69 1010.9
20260508070203 46 248 8.0 0.0 0.00 0.00 0.00 69 1010.9
20260508065556 46 248 9.0 11.0 0.00 0.05 0.00 68 1010.7
20260508065038 47 270 8.0 11.0 0.00 0.05 0.00 68 1010.8
20260508064527 47 248 7.0 9.0 0.00 0.05 0.00 69 1010.7
20260508064016 46 248 7.0 11.0 0.00 0.05 0.00 71 1011.0
20260508063507 46 270 7.0 11.0 0.00 0.05 0.00 71 1010.9
20260508062956 46 248 7.0 9.0 0.00 0.05 0.00 71 1011.3
20260508062500 46 270 6.0 11.0 0.00 0.05 0.00 71 1011.0
20260508061937 46 248 6.0 13.0 0.00 0.05 0.00 72 1011.0
20260508061427 46 248 7.0 13.0 0.00 0.05 0.00 72 1011.3
20260508060916 46 270 7.0 11.0 0.00 0.05 0.00 73 1011.3
20260508060406 46 270 8.0 11.0 0.00 0.05 0.00 73 1011.2
20260508055856 46 248 7.0 13.0 0.00 0.05 0.00 72 1011.2
20260508055346 46 248 7.0 13.0 0.00 0.05 0.00 72 1011.0
20260508054836 46 248 8.0 13.0 0.00 0.05 0.00 72 1010.7
20260508054325 46 248 9.0 13.0 0.00 0.05 0.00 73 1010.9
20260508053815 46 248 8.0 11.0 0.00 0.05 0.00 73 1011.0
20260508053306 46 248 8.0 9.0 0.00 0.05 0.00 73 1011.0
20260508052756 46 270 7.0 9.0 0.00 0.05 0.00 74 1011.3
20260508052245 46 225 4.0 8.0 0.00 0.05 0.00 73 1011.1
20260508051736 46 248 5.0 8.0 0.00 0.05 0.00 74 1011.1
20260508051225 46 270 4.0 7.0 0.00 0.05 0.00 74 1011.3
20260508050714 46 248 4.0 7.0 0.00 0.05 0.00 74 1011.7
20260508050204 46 270 4.0 8.0 0.00 0.05 0.00 74 1011.6
20260508045654 46 270 5.0 8.0 0.00 0.05 0.00 76 1011.7
20260508045145 46 270 5.0 8.0 0.00 0.05 0.00 76 1011.5
20260508044634 46 270 4.0 8.0 0.00 0.05 0.00 77 1011.3
20260508044124 46 270 5.0 7.0 0.00 0.05 0.00 76 1011.5
20260508043614 46 270 4.0 7.0 0.00 0.05 0.00 76 1011.5
20260508043108 46 270 5.0 7.0 0.00 0.05 0.00 76 1011.5
20260508042553 46 270 4.0 6.0 0.00 0.05 0.00 77 1011.5
20260508042044 46 293 4.0 7.0 0.00 0.05 0.00 77 1011.7
20260508041533 46 293 4.0 7.0 0.00 0.05 0.00 76 1011.4
20260508041024 46 293 4.0 7.0 0.00 0.05 0.00 76 1011.3
20260508040514 46 270 4.0 8.0 0.00 0.05 0.00 76 1011.5
20260508040003 47 270 4.0 8.0 0.00 0.05 0.00 75 1011.5
20260508034943 47 270 5.0 7.0 0.00 0.05 0.00 75 1011.4
20260508034434 47 293 4.0 7.0 0.00 0.05 0.00 76 1011.2
20260508033413 47 270 4.0 7.0 0.00 0.05 0.00 74 1011.1
20260508032903 48 270 4.0 8.0 0.00 0.05 0.00 72 1011.0
20260508032353 49 270 5.0 8.0 0.00 0.05 0.00 71 1010.8
20260508031332 48 270 4.0 9.0 0.00 0.05 0.00 72 1010.7
20260508030823 48 248 6.0 9.0 0.00 0.05 0.00 74 1010.7
20260508025802 49 270 7.0 9.0 0.00 0.05 0.05 73 1011.0
20260508025252 49 248 5.0 11.0 0.00 0.05 0.05 72 1010.7
20260508024743 50 248 8.0 11.0 0.00 0.05 0.05 71 1010.9
20260508024232 50 248 8.0 11.0 0.00 0.05 0.05 71 1010.8
20260508023722 50 248 8.0 11.0 0.00 0.05 0.05 71 1010.9
20260508023212 51 248 8.0 11.0 0.00 0.05 0.05 69 1011.2
20260508022701 50 248 6.0 9.0 0.00 0.05 0.05 70 1010.9
20260508022151 50 270 6.0 11.0 0.00 0.05 0.05 71 1011.2
20260508021641 50 270 6.0 11.0 0.00 0.05 0.05 71 1011.0
20260508021131 50 270 6.0 9.0 0.00 0.05 0.05 71 1011.2
20260508020621 51 270 5.0 9.0 0.00 0.05 0.05 71 1011.1
20260508020110 51 270 7.0 9.0 0.00 0.05 0.05 71 1011.2
20260508015600 51 248 6.0 9.0 0.00 0.05 0.05 72 1011.1
20260508014541 51 248 6.0 11.0 0.00 0.05 0.05 73 1010.9
20260508014031 51 270 7.0 11.0 0.00 0.05 0.05 73 1010.9
20260508013522 51 270 7.0 11.0 0.00 0.05 0.05 73 1010.7
20260508013011 51 270 7.0 9.0 0.00 0.05 0.05 73 1010.6
20260508012500 51 248 7.0 9.0 0.00 0.05 0.05 73 1010.5
20260508011949 51 270 7.0 11.0 0.00 0.05 0.05 74 1010.8
20260508011439 51 248 8.0 11.0 0.00 0.05 0.05 73 1010.6
20260508010419 51 270 5.0 8.0 0.00 0.05 0.05 77 1010.6
20260508005909 50 270 5.0 8.0 0.00 0.05 0.05 79 1010.6
20260508005400 50 293 6.0 8.0 0.00 0.05 0.05 80 1010.7
20260508004849 50 270 5.0 8.0 0.00 0.05 0.05 82 1010.5
20260508003829 49 293 4.0 6.0 0.00 0.05 0.05 87 1010.6
20260508003320 49 293 4.0 6.0 0.00 0.05 0.05 89 1010.8
20260508002810 48 293 4.0 6.0 0.00 0.05 0.05 89 1010.7
20260508001239 50 315 4.0 6.0 0.00 0.05 0.05 88 1010.3
20260508000728 50 293 4.0 6.0 0.00 0.05 0.05 88 1010.3
20260507235708 51 293 4.0 8.0 0.00 0.05 0.05 87 1010.2
20260507235158 51 293 6.0 8.0 0.00 0.05 0.05 87 1010.4
20260507234647 51 293 4.0 9.0 0.00 0.05 0.05 87 1010.4
20260507234138 51 293 7.0 9.0 0.00 0.05 0.05 87 1010.2
20260507233627 51 293 7.0 9.0 0.00 0.05 0.05 87 1010.5
20260507233117 51 293 6.0 9.0 0.00 0.05 0.05 87 1010.1
20260507232612 51 293 7.0 9.0 0.00 0.05 0.05 88 1010.2
20260507231549 51 293 4.0 8.0 0.00 0.05 0.05 89 1010.1
20260507231037 51 293 5.0 9.0 0.00 0.05 0.05 89 1010.2
20260507230527 51 270 5.0 9.0 0.00 0.05 0.05 90 1010.3
20260507230017 51 293 6.0 8.0 0.00 0.05 0.05 91 1010.2